Regional Weather Roundup
Issued by NWS

Home | Current Version | Previous Version | Text Only | Print | Product List | Glossary On
Versions: 1 2 3 4 5 6 7 8 9 10 11 12 13 14 15 16 17 18 19 20 21 22 23 24 25 26 27 28 29 30 31 32 33 34 35 36 37 38 39 40 41 42 43 44 45 46 47 48 49 50
000
ASUS42 KKEY 271110
RWRKEY

FLORIDA REGIONAL WEATHER ROUNDUP FOR THE FLORIDA KEYS
NATIONAL WEATHER SERVICE KEY WEST FLORIDA
700 AM EDT THU APR 27 2017

...SOUTH FLORIDA AND THE KEYS...

CITY           SKY/WX    TMP DP  RH WIND       PRES   REMARKS
FORT MYERS     CLOUDY    73  73 100 VRB5      29.90R FOG
SW REGIONAL AP CLOUDY    71  70  96 SE5       29.91R FOG
NAPLES         FOG       73  73 100 E7        29.90R VSB 1/2
MIAMI          PTCLDY    78  73  84 SE6       29.91R
WEST KENDALL   CLEAR     76  72  87 SE3       29.90R
HOMESTEAD      NOT AVBL
MARATHON       CLEAR     80  77  90 SE7       29.89R
BOCA CHICA NAS PTCLDY    79  74  84 S8        29.88R
KEY WEST INTL  CLEAR     80  74  81 S9        29.88R

...INTERNATIONAL WEATHER...

CITY           SKY/WX    TMP DP  RH WIND       PRES   REMARKS
NASSAU BAHAMAS MOCLDY    81  66  61 SE9       29.96R
CANCUN MEXICO  PTCLDY    81  77  89 SE17      29.77S
COZUMEL MEXICO PTCLDY    81  77  89 SE12      29.75

ADJACENT COASTAL WATERS...

STATION/POSITION TIME  SKY/WX   TEMP    WIND        PRES    WAVE
                                AIR SEA DIR/SP/G            HT/PER
                 (UTC)          (F)     (DEG/KT/KT) (MB)    (FT/S)
PULASKI SHOAL LI 1000            78     160/ 11/ 12 1011.1R
SAND KEY         1050            78     200/  9/ 11 1012.2R
LONG KEY         1000            78 80  140/ 11/ 12 1012.1R
MOLASSES REEF    1000            78 78  160/ 12/ 14 1012.3R
FOWEY ROCKS      1000            77 78  150/ 14/ 15 1012.8R
Buoy 42097       1100                                 N/A     3/ 6

$$



USA.gov is the U.S. government's official web portal to all federal, state and local government web resources and services.